DELTA 1 DEB, 27578

Orbit data source: Space-Track

DELTA 1 DEB, 27578 is space debris in SSO originally from a launch on Thu, 12 Jun 1975 UTC launched from the Air Force Western Test Range (AFWTR). Debris objects in space refer to the collection of defunct objects orbiting the Earth. Examples of debris include non-operational satellites, rocket bodies, and fragments generated from explosions, collisions, or faulty payload assembly.

Loading next visibility...
Identifier
27578, 1975-052LF
Orbit
SSO
Country
Flag of USUS
Related business
Manufacturer
Unknown
Mission
Spacecraft
Bus & Motor
Unknown
Mass
Unknown
Launch date (UTC)
1975-06-12 (51 years ago)
Launch vehicle
Unknown
Launch site
Air Force Western Test Range (AFWTR)
Object type
Payload
Rocket body
Debris
Shape & HBR
Unknown shape, 0.1 m
Radar Cross Section
Small (<0.1 m²)

Expand to show TLE details & history
Last TLE update: 21 hours ago

TLE from 21 hours ago
0 DELTA 1 DEB
1 27578U 75052LF  25353.61876339  .00000435  00000-0  49020-3 0  9999
2 27578  99.6081 258.2246 0040597 284.9113 192.1626 13.76254411234231
Epoch: 2025-12-19T14:51Z
TLE epoch observation values (Epoch: 2025-12-19T14:51:01.156Z)
Latitude
61.57794°
Longitude
145.14266°
Altitude
1,016.863 km
Speed
7.334 km/s
True Right ascension
06h 25m 25s
True Declination
61° 26' 20"
Sunlit
Object was in full shadow at epoch
Visualization orbit readout
Latitude
Unknown
Longitude
Unknown
Altitude
Unknown
Speed
Unknown
Apparent Right ascension
Unknown
Apparent Declination
Unknown
Sunlit
N/A
Visualization observer readout
Local Sidereal Time
10:41:59
Azimuth
Unknown
Elevation
Unknown
Doppler factor
Unknown
Orbital elements
Apogee altitude
1,004.313 km
Perigee altitude
944.614 km
Semi-major axis
7,352.601 km
Eccentricity
0.00406
Inclination
99.6081°
RAAN
258.2246°
Arg. of periapsis
284.9113°
True anomaly
192.06507°
Mean anomaly
192.1626°
Eccentric anomaly
192.11379°
Mean motion
3.44256 °/min
Orbital period
104.57 mins
BSTAR
0.0004902
Loading maneuver chart data...
Computing Atmospheric mass density...
Loading historical data...
Loading historical data...
Loading historical data...
Loading historical data...
Loading historical data...
Loading historical data...
Loading historical data...

Documentation

Showing up to 5 results
|